Time,TemperatureF,DewpointF,PressureIn,WindDirection,WindDirectionDegrees,WindSpeedMPH,WindSpeedGustMPH,Humidity,HourlyPrecipIn,Conditions,Clouds,dailyrainin,SoftwareType,DateUTC
2013-07-24 00:00:00,75.0,69.0,-100.00,WSW,250,3.0,6.0,82,0.00,,,-99.99,,2013-07-24 04:00:00,
2013-07-24 00:32:00,75.0,69.0,-100.00,WSW,250,3.0,6.0,82,0.00,,,-99.99,,2013-07-24 04:32:00,
2013-07-24 00:43:00,75.0,69.0,-100.00,WSW,250,3.0,6.0,82,0.00,,,-99.99,,2013-07-24 04:43:00,
2013-07-24 00:53:00,75.0,69.0,-100.00,WSW,250,3.0,6.0,82,0.00,,,-99.99,,2013-07-24 04:53:00,
2013-07-24 01:00:00,74.0,68.0,-100.00,West,262,3.0,7.0,84,0.00,,,-99.99,,2013-07-24 05:00:00,
2013-07-24 01:33:00,74.0,68.0,-100.00,West,262,3.0,7.0,84,0.00,,,-99.99,,2013-07-24 05:33:00,
2013-07-24 01:43:00,74.0,68.0,-100.00,West,262,3.0,7.0,84,0.00,,,-99.99,,2013-07-24 05:43:00,
2013-07-24 01:52:00,74.0,68.0,-100.00,West,262,3.0,7.0,84,0.00,,,-99.99,,2013-07-24 05:52:00,
2013-07-24 02:00:00,75.0,67.0,-100.00,WSW,240,3.0,8.0,78,0.00,,,-99.99,,2013-07-24 06:00:00,
2013-07-24 02:43:00,75.0,67.0,-100.00,WSW,240,3.0,8.0,78,0.00,,,-99.99,,2013-07-24 06:43:00,
2013-07-24 02:53:00,75.0,67.0,-100.00,WSW,240,3.0,8.0,78,0.00,,,-99.99,,2013-07-24 06:53:00,
2013-07-24 03:00:00,73.0,68.0,-100.00,West,271,0.0,8.0,82,0.00,,,-99.99,,2013-07-24 07:00:00,
2013-07-24 03:32:00,73.0,68.0,-100.00,West,271,0.0,8.0,82,0.00,,,-99.99,,2013-07-24 07:32:00,
2013-07-24 03:43:00,73.0,68.0,-100.00,West,271,0.0,8.0,82,0.00,,,-99.99,,2013-07-24 07:43:00,
2013-07-24 03:53:00,73.0,68.0,-100.00,West,271,0.0,8.0,82,0.00,,,-99.99,,2013-07-24 07:53:00,
2013-07-24 04:00:00,72.0,68.0,-100.00,SSW,212,3.0,8.0,85,0.00,,,-99.99,,2013-07-24 08:00:00,
2013-07-24 04:32:00,72.0,68.0,-100.00,SSW,212,3.0,8.0,85,0.00,,,-99.99,,2013-07-24 08:32:00,
2013-07-24 04:43:00,72.0,68.0,-100.00,SSW,212,3.0,8.0,85,0.00,,,-99.99,,2013-07-24 08:43:00,
2013-07-24 04:52:00,72.0,68.0,-100.00,SSW,212,3.0,8.0,85,0.00,,,-99.99,,2013-07-24 08:52:00,
2013-07-24 05:00:00,72.0,67.0,-100.00,West,264,3.0,6.0,85,0.00,,,-99.99,,2013-07-24 09:00:00,
2013-07-24 05:32:00,72.0,67.0,-100.00,West,264,3.0,6.0,85,0.00,,,-99.99,,2013-07-24 09:32:00,
2013-07-24 05:43:00,72.0,67.0,-100.00,West,264,3.0,6.0,85,0.00,,,-99.99,,2013-07-24 09:43:00,
2013-07-24 05:53:00,72.0,67.0,-100.00,West,264,3.0,6.0,85,0.00,,,-99.99,,2013-07-24 09:53:00,
2013-07-24 06:00:00,72.0,67.0,-100.00,West,280,1.0,6.0,86,0.00,,,-99.99,,2013-07-24 10:00:00,
2013-07-24 06:43:00,72.0,67.0,-100.00,West,280,1.0,6.0,86,0.00,,,-99.99,,2013-07-24 10:43:00,
2013-07-24 06:53:00,72.0,67.0,-100.00,West,280,1.0,6.0,86,0.00,,,-99.99,,2013-07-24 10:53:00,
2013-07-24 07:00:00,73.0,67.0,-100.00,South,187,3.0,5.0,83,0.00,,,-99.99,,2013-07-24 11:00:00,
2013-07-24 07:44:00,73.0,67.0,-100.00,South,187,3.0,5.0,83,0.00,,,-99.99,,2013-07-24 11:44:00,
2013-07-24 07:52:00,73.0,67.0,-100.00,South,187,3.0,5.0,83,0.00,,,-99.99,,2013-07-24 11:52:00,
2013-07-24 08:00:00,78.0,66.0,-100.00,NW,306,6.0,8.0,66,0.00,,,-99.99,,2013-07-24 12:00:00,
2013-07-24 08:32:00,78.0,66.0,-100.00,NW,306,6.0,8.0,66,0.00,,,-99.99,,2013-07-24 12:32:00,
2013-07-24 08:42:00,78.0,66.0,-100.00,NW,306,6.0,8.0,66,0.00,,,-99.99,,2013-07-24 12:42:00,
2013-07-24 08:52:00,78.0,66.0,-100.00,NW,306,6.0,8.0,66,0.00,,,-99.99,,2013-07-24 12:52:00,
2013-07-24 10:00:00,81.0,66.0,-100.00,NW,308,3.0,8.0,60,0.00,,,-99.99,,2013-07-24 14:00:00,
2013-07-24 10:32:00,81.0,66.0,-100.00,NW,308,3.0,8.0,60,0.00,,,-99.99,,2013-07-24 14:32:00,
2013-07-24 10:43:00,81.0,66.0,-100.00,NW,308,3.0,8.0,60,0.00,,,-99.99,,2013-07-24 14:43:00,
2013-07-24 10:55:00,81.0,66.0,-100.00,NW,308,3.0,8.0,60,0.00,,,-99.99,,2013-07-24 14:55:00,
2013-07-24 11:00:00,83.0,64.0,-100.00,NW,322,3.0,9.0,54,0.00,,,-99.99,,2013-07-24 15:00:00,
2013-07-24 11:33:00,83.0,64.0,-100.00,NW,322,3.0,9.0,54,0.00,,,-99.99,,2013-07-24 15:33:00,
2013-07-24 11:43:00,83.0,64.0,-100.00,NW,322,3.0,9.0,54,0.00,,,-99.99,,2013-07-24 15:43:00,
2013-07-24 11:53:00,83.0,64.0,-100.00,NW,322,3.0,9.0,54,0.00,,,-99.99,,2013-07-24 15:53:00,
2013-07-24 12:00:00,85.0,63.0,-100.00,NE,37,4.0,9.0,49,0.00,,,-99.99,,2013-07-24 16:00:00,
2013-07-24 12:33:00,85.0,63.0,-100.00,NE,37,4.0,9.0,49,0.00,,,-99.99,,2013-07-24 16:33:00,
2013-07-24 12:43:00,85.0,63.0,-100.00,NE,37,4.0,9.0,49,0.00,,,-99.99,,2013-07-24 16:43:00,
2013-07-24 12:53:00,85.0,63.0,-100.00,NE,37,4.0,9.0,49,0.00,,,-99.99,,2013-07-24 16:53:00,
2013-07-24 13:00:00,83.0,65.0,-100.00,North,355,5.0,13.0,53,0.00,,,-99.99,,2013-07-24 17:00:00,
2013-07-24 13:33:00,83.0,65.0,-100.00,North,355,5.0,13.0,53,0.00,,,-99.99,,2013-07-24 17:33:00,
2013-07-24 13:43:00,83.0,65.0,-100.00,North,355,5.0,13.0,53,0.00,,,-99.99,,2013-07-24 17:43:00,
2013-07-24 13:53:00,83.0,65.0,-100.00,North,355,5.0,13.0,53,0.00,,,-99.99,,2013-07-24 17:53:00,
2013-07-24 14:00:00,83.0,68.0,-100.00,SW,214,2.0,12.0,61,0.00,,,-99.99,,2013-07-24 18:00:00,
2013-07-24 14:33:00,83.0,68.0,-100.00,SW,214,2.0,12.0,61,0.00,,,-99.99,,2013-07-24 18:33:00,
2013-07-24 14:43:00,83.0,68.0,-100.00,SW,214,2.0,12.0,61,0.00,,,-99.99,,2013-07-24 18:43:00,
2013-07-24 14:52:00,83.0,68.0,-100.00,SW,214,2.0,12.0,61,0.00,,,-99.99,,2013-07-24 18:52:00,
2013-07-24 15:00:00,83.0,66.0,-100.00,North,10,7.0,13.0,56,0.00,,,-99.99,,2013-07-24 19:00:00,
2013-07-24 15:33:00,83.0,66.0,-100.00,North,10,7.0,13.0,56,0.00,,,-99.99,,2013-07-24 19:33:00,
2013-07-24 15:43:00,83.0,66.0,-100.00,North,10,7.0,13.0,56,0.00,,,-99.99,,2013-07-24 19:43:00,
2013-07-24 15:53:00,83.0,66.0,-100.00,North,10,7.0,13.0,56,0.00,,,-99.99,,2013-07-24 19:53:00,
2013-07-24 16:00:00,82.0,64.0,-100.00,NW,318,8.0,11.0,56,0.00,,,-99.99,,2013-07-24 20:00:00,
2013-07-24 16:33:00,82.0,64.0,-100.00,NW,318,8.0,11.0,56,0.00,,,-99.99,,2013-07-24 20:33:00,
2013-07-24 16:43:00,82.0,64.0,-100.00,NW,318,8.0,11.0,56,0.00,,,-99.99,,2013-07-24 20:43:00,
2013-07-24 16:53:00,82.0,64.0,-100.00,NW,318,8.0,11.0,56,0.00,,,-99.99,,2013-07-24 20:53:00,
2013-07-24 17:00:00,81.0,65.0,-100.00,NNE,23,3.0,14.0,59,0.00,,,-99.99,,2013-07-24 21:00:00,
2013-07-24 17:32:00,81.0,65.0,-100.00,NNE,23,3.0,14.0,59,0.00,,,-99.99,,2013-07-24 21:32:00,
2013-07-24 17:44:00,81.0,65.0,-100.00,NNE,23,3.0,14.0,59,0.00,,,-99.99,,2013-07-24 21:44:00,
2013-07-24 17:53:00,81.0,65.0,-100.00,NNE,23,3.0,14.0,59,0.00,,,-99.99,,2013-07-24 21:53:00,
2013-07-24 18:00:00,79.0,65.0,-100.00,NNE,27,4.0,13.0,61,0.00,,,-99.99,,2013-07-24 22:00:00,
2013-07-24 18:43:00,79.0,65.0,-100.00,NNE,27,4.0,13.0,61,0.00,,,-99.99,,2013-07-24 22:43:00,
2013-07-24 18:53:00,79.0,65.0,-100.00,NNE,27,4.0,13.0,61,0.00,,,-99.99,,2013-07-24 22:53:00,
2013-07-24 19:00:00,79.0,64.0,-100.00,NNE,16,4.0,12.0,59,0.00,,,-99.99,,2013-07-24 23:00:00,
2013-07-24 19:43:00,79.0,64.0,-100.00,NNE,16,4.0,12.0,59,0.00,,,-99.99,,2013-07-24 23:43:00,
2013-07-24 19:52:00,79.0,64.0,-100.00,NNE,16,4.0,12.0,59,0.00,,,-99.99,,2013-07-24 23:52:00,
2013-07-24 20:00:00,76.0,64.0,-100.00,NE,49,3.0,10.0,66,0.00,,,-99.99,,2013-07-25 00:00:00,
2013-07-24 20:33:00,76.0,64.0,-100.00,NE,49,3.0,10.0,66,0.00,,,-99.99,,2013-07-25 00:33:00,
2013-07-24 20:43:00,76.0,64.0,-100.00,NE,49,3.0,10.0,66,0.00,,,-99.99,,2013-07-25 00:43:00,
2013-07-24 20:53:00,76.0,64.0,-100.00,NE,49,3.0,10.0,66,0.00,,,-99.99,,2013-07-25 00:53:00,
2013-07-24 21:00:00,74.0,66.0,-100.00,NE,35,0.0,6.0,76,0.00,,,-99.99,,2013-07-25 01:00:00,
2013-07-24 21:32:00,74.0,66.0,-100.00,NE,35,0.0,6.0,76,0.00,,,-99.99,,2013-07-25 01:32:00,
2013-07-24 21:43:00,74.0,66.0,-100.00,NE,35,0.0,6.0,76,0.00,,,-99.99,,2013-07-25 01:43:00,
2013-07-24 21:53:00,74.0,66.0,-100.00,NE,35,0.0,6.0,76,0.00,,,-99.99,,2013-07-25 01:53:00,
2013-07-24 22:00:00,74.0,66.0,-100.00,NNE,25,0.0,3.0,76,0.00,,,-99.99,,2013-07-25 02:00:00,
2013-07-24 22:43:00,74.0,66.0,-100.00,NNE,25,0.0,3.0,76,0.00,,,-99.99,,2013-07-25 02:43:00,
2013-07-24 22:53:00,74.0,66.0,-100.00,NNE,25,0.0,3.0,76,0.00,,,-99.99,,2013-07-25 02:53:00,
2013-07-24 23:00:00,72.0,58.0,-100.00,NNE,28,4.0,14.0,62,0.00,,,-99.99,,2013-07-25 03:00:00,
2013-07-24 23:40:00,72.0,58.0,-100.00,NNE,28,4.0,14.0,62,0.00,,,-99.99,,2013-07-25 03:40:00,
2013-07-24 23:53:00,72.0,58.0,-100.00,NNE,28,4.0,14.0,62,0.00,,,-99.99,,2013-07-25 03:53:00,